[[{"header":{"parameterUnit":"m.s-1","parameterCategory":1,"la1":30.2991,"la2":30.254,"lo1":-89.0895,"lo2":-89.0444,"dy":0.0017,"dx":0.0017,"nx":28,"ny":28,"refTime":"2025-09-03T03:00:00:Z","depth":0,"parameterNumber":2,"parameterNumberName":"U-component_of_WINDS"},"data":[0,0,0,0,0,0,0,0,0,0,0,0,0,0,0,0,0,0,0,0,0,0,0,0,0,0,0,0,0,0,0,0,0,0,0,0,0,0,0,0,0,0,0,0,0,0,0,0,0,0,0,0,0,0,0,0,0,0,-0.8296,-0.8295,0,-0.8242,-0.8241,-0.824,-0.8197,-0.8196,-0.8196,-0.8196,-0.8139,-0.8138,-0.8137,0,0,0,0,0,0,0,0,0,0,0,0,0,-0.8362,-0.8361,-0.8296,-0.8295,-0.8294,-0.8242,-0.8241,-0.824,-0.8197,-0.8196,-0.8196,-0.8195,-0.814,-0.8138,-0.8137,0,0,0,0,0,0,0,0,0,0,0,0,0,-0.8323,-0.8361,-0.8296,-0.8266,-0.8263,-0.8242,-0.8241,-0.824,-0.8197,-0.8196,-0.8196,-0.8195,-0.814,-0.8139,-0.8137,-0.814,0,0,-0.8132,-0.8131,0,0,0,0,0,0,0,0,-0.8325,-0.8321,-0.8271,-0.8268,-0.8265,-0.8225,-0.8244,-0.8206,-0.8197,-0.8222,-0.8196,-0.8195,-0.8168,-0.8164,-0.8156,-0.8137,-0.8135,-0.8132,-0.8131,-0.813,-0.813,0,0,0,0,0,0,0,-0.8328,-0.8323,-0.8274,-0.8271,-0.8267,-0.8256,-0.825,-0.8236,-0.82,-0.822,-0.8217,-0.8211,-0.8166,-0.8157,-0.8154,-0.8134,-0.8132,-0.813,-0.8129,-0.8129,-0.8117,-0.8118,0,0,0,0,0,0,-0.8335,-0.8325,-0.8276,-0.8273,-0.8294,-0.8255,-0.8248,-0.8239,-0.82,-0.8193,-0.8212,-0.8209,-0.8161,-0.8156,-0.8152,-0.8154,-0.813,-0.8129,-0.8128,-0.8117,-0.8117,-0.8118,0,0,0,0,0,0,-0.8337,-0.8331,-0.8278,-0.8298,-0.829,-0.8255,-0.8244,-0.8238,-0.8229,-0.8193,-0.8187,-0.8209,-0.816,-0.8154,-0.8144,-0.8151,-0.8128,-0.8126,-0.8116,-0.8117,-0.8118,-0.8157,0,0,0,0,0,0,-0.8339,-0.8332,-0.8333,-0.8298,-0.829,-0.8271,-0.8245,-0.8237,-0.8226,-0.8222,-0.8189,-0.8183,-0.8159,-0.8146,-0.8142,-0.8148,-0.8125,-0.8115,-0.8116,-0.8118,-0.8155,-0.8159,-0.8163,0,0,0,0,0,-0.8341,-0.8345,-0.8333,-0.8327,-0.8289,-0.8271,-0.8266,-0.8239,-0.8227,-0.8227,-0.8205,-0.8184,-0.8151,-0.8146,-0.814,-0.8146,-0.8114,-0.8116,-0.8117,-0.8153,-0.8158,-0.8163,0,0,0,0,0,0,-0.838,-0.834,-0.8326,-0.8319,-0.8299,-0.8264,-0.8263,-0.8245,-0.8227,-0.8225,-0.8191,-0.8184,-0.8177,-0.8161,-0.8155,-0.8148,-0.813,-0.8131,-0.8159,-0.8164,-0.8168,-0.8171,-0.8124,0,0,0,0,0,-0.8388,-0.8377,-0.8342,-0.8339,-0.833,-0.8299,-0.829,-0.827,-0.8248,-0.8239,-0.8216,-0.8195,-0.8181,-0.8171,-0.8156,-0.8153,-0.8145,-0.8154,-0.8158,-0.8162,-0.8163,-0.8161,-0.8165,-0.8123,-0.8123,-0.8123,0,0,-0.8404,-0.8381,-0.8375,-0.8346,-0.8329,-0.8318,-0.8292,-0.8281,-0.8273,-0.8238,-0.8226,-0.8209,-0.8184,-0.8178,-0.8174,-0.8164,-0.8173,-0.8164,-0.8167,-0.8165,-0.8163,-0.8167,-0.8171,-0.8124,-0.8124,-0.8124,0,0,-0.8427,-0.8408,-0.8404,-0.8387,-0.8361,-0.8341,-0.834,-0.8308,-0.8296,-0.8284,-0.8258,-0.8248,-0.8223,-0.8207,-0.8195,-0.8215,-0.8195,-0.8211,-0.8231,-0.823,-0.8234,-0.8236,-0.8244,-0.8247,-0.8212,-0.8212,-0.8212,0,-0.845,-0.8432,-0.8404,-0.8395,-0.8384,-0.8353,-0.8349,-0.8334,-0.8304,-0.8297,-0.8287,-0.8256,-0.8237,-0.8227,-0.8232,-0.8223,-0.8222,-0.8214,-0.8235,-0.8238,-0.824,-0.8247,-0.825,-0.8214,-0.8214,-0.8213,-0.8213,0,-0.8462,-0.845,-0.845,-0.8423,-0.8411,-0.8405,-0.8377,-0.8369,-0.8351,-0.8332,-0.8322,-0.8298,-0.8278,-0.8274,-0.8257,-0.8262,-0.8257,-0.8242,-0.8223,-0.8247,-0.8252,-0.8255,-0.8217,-0.8216,-0.8215,-0.8215,0,0,-0.8506,-0.8465,-0.8465,-0.8453,-0.8423,-0.8414,-0.8407,-0.8388,-0.8382,-0.8363,-0.8357,-0.8337,-0.8324,-0.831,-0.8291,-0.829,-0.8309,-0.8275,-0.8274,-0.8282,-0.8314,-0.8326,-0.8329,-0.8296,-0.8296,-0.8297,-0.8317,0,-0.8524,-0.8509,-0.8485,-0.8478,-0.8468,-0.844,-0.8434,-0.8415,-0.8398,-0.8387,-0.8368,-0.8355,-0.8337,-0.8329,-0.8327,-0.8307,-0.8315,-0.8305,-0.829,-0.829,-0.8297,-0.8332,-0.8344,-0.8364,-0.8319,-0.8319,-0.8319,0,-0.8542,-0.8526,-0.8519,-0.8492,-0.8486,-0.8481,-0.8463,-0.8452,-0.8432,-0.8419,-0.8406,-0.8385,-0.8377,-0.8361,-0.835,-0.8344,-0.8337,-0.8326,-0.8326,-0.8323,-0.8305,-0.833,-0.8369,-0.8373,-0.8323,-0.8322,-0.8322,0,-0.8576,-0.8552,-0.8545,-0.8536,-0.8503,-0.8501,-0.8487,-0.8466,-0.8456,-0.844,-0.8434,-0.8417,-0.8408,-0.8396,-0.8372,-0.8362,-0.8364,-0.8345,-0.8353,-0.8354,-0.8354,-0.8354,-0.8393,-0.835,-0.835,-0.835,-0.835,0,-0.8598,-0.8595,-0.856,-0.8555,-0.8551,-0.8524,-0.8521,-0.8505,-0.8486,-0.8479,-0.8454,-0.8447,-0.8416,-0.8406,-0.8388,-0.8382,-0.8378,-0.8368,-0.8363,-0.837,-0.8371,-0.8364,-0.8362,-0.8351,-0.8351,-0.8351,-0.8351,0,-0.8634,-0.861,-0.8601,-0.8572,-0.8564,-0.8563,-0.8538,-0.8533,-0.8515,-0.8506,-0.8503,-0.8475,-0.8462,-0.8437,-0.8417,-0.8405,-0.8404,-0.8395,-0.8411,-0.8407,-0.8417,-0.8417,-0.8452,-0.8456,-0.8411,-0.8412,-0.8412,0,-0.865,-0.8647,-0.8618,-0.8611,-0.8599,-0.8588,-0.8579,-0.8553,-0.8544,-0.8522,-0.852,-0.8506,-0.8492,-0.8474,-0.8452,-0.8437,-0.8428,-0.8441,-0.8425,-0.8433,-0.8428,-0.8429,-0.8429,-0.8445,-0.8445,-0.8446,-0.8446,0,-0.868,-0.8669,-0.8657,-0.8641,-0.8631,-0.8617,-0.8602,-0.8598,-0.8568,-0.856,-0.8547,-0.8538,-0.8518,-0.8505,-0.8487,-0.8474,-0.8455,-0.8452,-0.8453,-0.846,-0.8469,-0.8465,-0.842,-0.8451,-0.845,-0.845,-0.845,-0.8449,-0.8706,-0.8703,-0.8683,-0.867,-0.8656,-0.8643,-0.8638,-0.862,-0.8609,-0.8591,-0.8577,-0.8566,-0.8546,-0.8521,-0.8509,-0.8501,-0.8491,-0.8493,-0.8493,-0.8494,-0.8497,-0.8471,-0.8497,-0.8497,-0.8497,-0.8497,-0.8497,0,-0.8736,-0.8722,-0.8711,-0.8691,-0.8682,-0.8666,-0.8649,-0.8642,-0.8633,-0.8617,-0.8605,-0.8591,-0.8579,-0.8557,-0.8542,-0.854,-0.8531,-0.8537,-0.8536,-0.8534,-0.8506,-0.8506,-0.8544,-0.8544,-0.8544,-0.8544,-0.8544,-0.8544,-0.875,-0.8744,-0.8731,-0.8718,-0.8704,-0.8693,-0.8685,-0.8673,-0.866,-0.8646,-0.8635,-0.8621,-0.8603,-0.8588,-0.8576,-0.857,-0.8566,-0.8575,-0.8566,-0.854,-0.8536,-0.8531,-0.8532,-0.8574,-0.8574,-0.8594,-0.8595,-0.8595]},{"header":{"parameterUnit":"m.s-1","parameterCategory":1,"la1":30.2991,"la2":30.254,"lo1":-89.0895,"lo2":-89.0444,"dy":0.0017,"dx":0.0017,"nx":28,"ny":28,"refTime":"2025-09-03T03:00:00:Z","depth":0,"parameterNumber":3,"parameterNumberName":"V-component_of_WINDS"},"data":[0,0,0,0,0,0,0,0,0,0,0,0,0,0,0,0,0,0,0,0,0,0,0,0,0,0,0,0,0,0,0,0,0,0,0,0,0,0,0,0,0,0,0,0,0,0,0,0,0,0,0,0,0,0,0,0,0,0,3.355,3.355,0,3.3478,3.3477,3.3476,3.3508,3.3509,3.3511,3.3513,3.3431,3.3427,3.3423,0,0,0,0,0,0,0,0,0,0,0,0,0,3.3708,3.3705,3.355,3.3549,3.3549,3.3478,3.3477,3.3476,3.3507,3.3509,3.3512,3.3514,3.3432,3.3427,3.3423,0,0,0,0,0,0,0,0,0,0,0,0,0,3.3638,3.3704,3.355,3.3556,3.3556,3.3478,3.3477,3.3476,3.3507,3.351,3.3512,3.3515,3.3433,3.3428,3.3422,3.3333,0,0,3.3405,3.3402,0,0,0,0,0,0,0,0,3.3642,3.3632,3.3556,3.3555,3.3555,3.3505,3.3503,3.3428,3.3506,3.3525,3.3513,3.3516,3.3453,3.3445,3.3426,3.3329,3.3326,3.3404,3.3401,3.3398,3.3396,0,0,0,0,0,0,0,3.3646,3.3635,3.3521,3.3555,3.3554,3.3559,3.3552,3.3488,3.3474,3.3524,3.3526,3.3517,3.3453,3.3431,3.3424,3.3324,3.3404,3.3399,3.3395,3.3393,3.3149,3.3146,0,0,0,0,0,0,3.3652,3.3639,3.3524,3.3519,3.3606,3.3554,3.3546,3.3518,3.3475,3.3472,3.3515,3.3519,3.344,3.3431,3.3421,3.3312,3.3398,3.3393,3.3389,3.3152,3.3148,3.3145,0,0,0,0,0,0,3.3656,3.3642,3.3527,3.358,3.3566,3.3549,3.3516,3.3515,3.3494,3.3469,3.3466,3.3496,3.3442,3.3429,3.3355,3.331,3.339,3.3385,3.3156,3.3151,3.3147,3.3095,0,0,0,0,0,0,3.366,3.3643,3.361,3.3579,3.3563,3.3464,3.3514,3.3512,3.3485,3.3489,3.345,3.3446,3.3443,3.3363,3.3349,3.3304,3.338,3.3159,3.3154,3.3148,3.3101,3.3089,3.308,0,0,0,0,0,3.3665,3.3597,3.3609,3.3595,3.3522,3.3461,3.3451,3.3451,3.3481,3.3447,3.3431,3.3447,3.3318,3.3355,3.334,3.3292,3.3162,3.3155,3.3149,3.3105,3.3092,3.308,0,0,0,0,0,0,3.3621,3.3593,3.3605,3.3526,3.3496,3.3467,3.3424,3.3437,3.3395,3.3401,3.34,3.3391,3.3313,3.3296,3.3338,3.3202,3.3244,3.3234,3.3217,3.3203,3.3193,3.3198,3.3376,0,0,0,0,0,3.3603,3.3558,3.3535,3.3466,3.3451,3.344,3.3413,3.3416,3.3384,3.337,3.3349,3.3315,3.3267,3.3234,3.3189,3.3099,3.309,3.3058,3.3048,3.3039,3.3029,3.2979,3.2964,3.3123,3.3123,3.3123,0,0,3.3562,3.3542,3.3513,3.3457,3.3434,3.3385,3.3429,3.3375,3.3338,3.3361,3.329,3.3273,3.3235,3.3152,3.3115,3.3135,3.2984,3.3031,3.3024,3.3019,3.297,3.2955,3.2942,3.3118,3.3119,3.312,0,0,3.3464,3.3446,3.3386,3.3363,3.3329,3.3322,3.3307,3.3276,3.3267,3.3196,3.3212,3.3167,3.3084,3.3055,3.303,3.2922,3.2935,3.2907,3.2851,3.2802,3.2789,3.2778,3.2737,3.2723,3.2898,3.2898,3.2898,0,3.3418,3.3347,3.3353,3.3298,3.3271,3.3294,3.3232,3.3208,3.3159,3.3139,3.3164,3.306,3.3036,3.2946,3.292,3.29,3.2881,3.291,3.2791,3.278,3.277,3.273,3.2715,3.2895,3.2895,3.2895,3.2896,0,3.3291,3.3241,3.3197,3.3152,3.3121,3.3063,3.3057,3.3024,3.303,3.302,3.2946,3.2919,3.2867,3.2846,3.285,3.2756,3.277,3.2793,3.2834,3.2751,3.2714,3.2699,3.289,3.2891,3.2892,3.2893,0,0,3.316,3.3121,3.3104,3.3083,3.3048,3.3008,3.295,3.2903,3.2874,3.284,3.2789,3.2719,3.274,3.2711,3.2713,3.267,3.2583,3.2698,3.2697,3.2675,3.2475,3.2457,3.2439,3.2593,3.259,3.2588,3.2478,0,3.3057,3.2959,3.2962,3.2868,3.2821,3.2842,3.2791,3.2762,3.2752,3.2708,3.2695,3.2645,3.2678,3.266,3.2619,3.2603,3.2542,3.2611,3.2542,3.254,3.2549,3.2421,3.24,3.2298,3.2464,3.2461,3.2459,0,3.2924,3.2888,3.279,3.2762,3.2742,3.2696,3.2652,3.2612,3.2579,3.2574,3.2543,3.2551,3.2489,3.2535,3.2448,3.2495,3.2467,3.2455,3.2451,3.2442,3.2493,3.2406,3.2265,3.2249,3.2437,3.2439,3.2441,0,3.2835,3.2763,3.2695,3.2677,3.2642,3.2609,3.2593,3.2563,3.2534,3.2495,3.2475,3.2429,3.2402,3.2365,3.2359,3.2394,3.2272,3.2317,3.2263,3.2263,3.2234,3.2235,3.2085,3.2221,3.2221,3.2221,3.2221,0,3.2719,3.2657,3.2654,3.2612,3.2544,3.2547,3.2478,3.2465,3.2438,3.2391,3.2407,3.2362,3.2359,3.2312,3.2307,3.2235,3.2224,3.2216,3.2214,3.2213,3.2213,3.2192,3.2198,3.2217,3.2218,3.2219,3.2219,0,3.2607,3.2603,3.253,3.2504,3.2496,3.2446,3.2422,3.2381,3.2373,3.2313,3.23,3.2285,3.2231,3.2223,3.2159,3.2156,3.2068,3.2076,3.208,3.208,3.2025,3.203,3.1854,3.183,3.1984,3.1982,3.1981,0,3.2531,3.2485,3.2455,3.2426,3.2409,3.2362,3.2333,3.2335,3.2303,3.2263,3.2225,3.2174,3.2132,3.2045,3.2027,3.1978,3.1982,3.1924,3.1975,3.1974,3.1978,3.198,3.1975,3.1913,3.1912,3.191,3.1909,0,3.2397,3.2397,3.2357,3.2315,3.228,3.2247,3.2215,3.219,3.2187,3.2151,3.2098,3.2066,3.2002,3.1949,3.1901,3.1881,3.1893,3.1894,3.1879,3.1875,3.1878,3.1873,3.2051,3.1897,3.1899,3.1899,3.19,3.1901,3.2299,3.2258,3.2231,3.2184,3.2162,3.2132,3.2091,3.2079,3.2035,3.1985,3.1988,3.1929,3.1896,3.1833,3.181,3.1762,3.178,3.1758,3.1752,3.1746,3.1739,3.1889,3.1753,3.1753,3.1754,3.1754,3.1754,0,3.2163,3.2147,3.2105,3.2061,3.2024,3.2043,3.2009,3.1976,3.1924,3.1894,3.1854,3.1791,3.1741,3.172,3.167,3.1635,3.1639,3.1621,3.1622,3.1617,3.1727,3.1744,3.1618,3.1618,3.1618,3.1619,3.1619,3.1619,3.2088,3.202,3.2017,3.1937,3.1921,3.1865,3.1844,3.1815,3.1791,3.1722,3.1681,3.1669,3.1642,3.159,3.1543,3.1538,3.1518,3.1496,3.1494,3.1596,3.1609,3.1622,3.1639,3.1493,3.1493,3.1388,3.1387,3.1386]}]]